Location: Baix
(44.7118°N, 4.7648°E)
Time: 10:03:35
(UTC+00:00)

Vanguard 2 Rocket - Pass Details

Date: 28 November 2020
Orbit: 554 x 3325 km, 32.9° (Epoch: 21 January)

Event Time Altitude Azimuth Distance (km) Brightness Sun altitude
Rises 07:15:44 0° 228° (SW) 7,065 11.3 2.3°
Reaches altitude 10° 07:20:39 10° 222° (SW) 6,196 11.1 3.0°
Maximum altitude 07:38:57 44° 159° (SSE) 3,930 10.9 5.7°
Drops below altitude 10° 07:53:55 10° 95° (E) 5,163 11.8 7.7°
Sets 07:57:33 0° 89° (E) 5,850 11.8 8.2°
